User: anonymous
Location: Mount Kobau Star Party
(49.1167°N, 119.7333°W)
Time: 21:47:07
(UTC-07:00)
Language:

TSX-5 - Orbit

View from above orbital plane
View from above orbital plane
View from above satellite
View from above satellite

Ground track
Ground track

The orbit data is extracted from the following two-line orbital elements,

1 26374U 00030A   14294.13279395  .00016553  00000-0  14301-2 0  4349
2 26374 068.9369 216.5052 0696110 290.6564 162.7974 13.94564150720183
Epoch (UTC): 21 October 2014 03:11:13
Eccentricity: 0.0696110
inclination: 68.9369°
perigee height: 405 km
apogee height: 1420 km
right ascension of ascending node: 216.5052°
argument of perigee: 290.6564°
revolutions per day: 13.94564150
mean anomaly at epoch: 162.7974°
orbit number at epoch: 72018

The dashed part of the orbit path shows where the satellite is in the earth's shadow,  

DLR